| time (UTC) | temp F | wind direction | speed knots | gust knots | rain 1hr in | rain 24hr in | rain mn in | humidity % | barometer mb |
| 20260509043934 | 39 | 90 | 12.2 | 23.5 | 0.00 | 0.00 | 0.00 | 80 | 1020.4 |
| 20260509043424 | 40 | 90 | 13.0 | 25.2 | 0.00 | 0.00 | 0.00 | 79 | 1020.5 |
| 20260509042914 | 39 | 113 | 19.1 | 25.2 | 0.00 | 0.00 | 0.00 | 79 | 1020.4 |
| 20260509042404 | 39 | 113 | 13.9 | 23.5 | 0.00 | 0.00 | 0.00 | 79 | 1020.3 |
| 20260509041854 | 39 | 113 | 13.9 | 23.5 | 0.00 | 0.00 | 0.00 | 79 | 1020.2 |
| 20260509041344 | 39 | 113 | 15.6 | 23.5 | 0.00 | 0.00 | 0.00 | 79 | 1019.7 |
| 20260509040833 | 39 | 90 | 18.2 | 20.9 | 0.00 | 0.00 | 0.00 | 78 | 1020.1 |
| 20260509040323 | 39 | 90 | 14.8 | 23.5 | 0.00 | 0.00 | 0.00 | 78 | 1020.0 |
| 20260509035306 | 39 | 90 | 14.8 | 21.7 | 0.00 | 0.00 | 0.00 | 77 | 1020.1 |
| 20260509034753 | 39 | 90 | 13.9 | 20.9 | 0.00 | 0.00 | 0.00 | 76 | 1019.7 |
| 20260509033733 | 39 | 113 | 13.0 | 18.2 | 0.00 | 0.00 | 0.00 | 76 | 1019.7 |
| 20260509033223 | 39 | 113 | 10.4 | 18.2 | 0.00 | 0.00 | 0.00 | 76 | 1019.7 |
| 20260509032713 | 39 | 113 | 13.9 | 18.2 | 0.00 | 0.00 | 0.00 | 76 | 1019.8 |
| 20260509032203 | 39 | 113 | 13.0 | 19.1 | 0.00 | 0.00 | 0.00 | 75 | 1020.0 |
| 20260509031652 | 39 | 113 | 13.9 | 20.9 | 0.00 | 0.00 | 0.00 | 74 | 1019.7 |
| 20260509031142 | 39 | 113 | 14.8 | 20.9 | 0.00 | 0.00 | 0.00 | 74 | 1019.4 |
| 20260509030632 | 39 | 113 | 15.6 | 20.9 | 0.00 | 0.00 | 0.00 | 74 | 1019.3 |
| 20260509025611 | 39 | 113 | 14.8 | 23.5 | 0.00 | 0.00 | 0.00 | 74 | 1019.3 |
| 20260509025102 | 39 | 113 | 11.3 | 21.7 | 0.00 | 0.00 | 0.00 | 75 | 1019.1 |
| 20260509024552 | 40 | 90 | 15.6 | 21.7 | 0.00 | 0.00 | 0.00 | 73 | 1018.9 |
| 20260509024042 | 40 | 90 | 15.6 | 23.5 | 0.00 | 0.00 | 0.00 | 73 | 1018.8 |
| 20260509023531 | 40 | 113 | 18.2 | 26.9 | 0.00 | 0.00 | 0.00 | 72 | 1019.0 |
| 20260509023022 | 40 | 90 | 14.8 | 26.9 | 0.00 | 0.00 | 0.00 | 71 | 1018.7 |
| 20260509022510 | 40 | 113 | 12.2 | 21.7 | 0.00 | 0.00 | 0.00 | 72 | 1018.4 |
| 20260509022001 | 40 | 113 | 13.9 | 20.9 | 0.00 | 0.00 | 0.00 | 72 | 1018.6 |
| 20260509021451 | 40 | 113 | 14.8 | 20.9 | 0.00 | 0.00 | 0.00 | 72 | 1018.2 |
| 20260509020941 | 40 | 90 | 14.8 | 20.0 | 0.00 | 0.00 | 0.00 | 72 | 1018.2 |
| 20260509020431 | 40 | 113 | 12.2 | 19.1 | 0.00 | 0.00 | 0.00 | 74 | 1017.9 |
| 20260509015935 | 40 | 90 | 13.9 | 19.1 | 0.00 | 0.00 | 0.00 | 73 | 1017.8 |
| 20260509015410 | 40 | 113 | 13.0 | 21.7 | 0.00 | 0.00 | 0.00 | 75 | 1017.8 |
| 20260509014900 | 40 | 113 | 10.4 | 21.7 | 0.00 | 0.00 | 0.00 | 77 | 1017.7 |
| 20260509014351 | 40 | 113 | 11.3 | 20.0 | 0.00 | 0.00 | 0.00 | 80 | 1017.5 |
| 20260509013840 | 39 | 113 | 14.8 | 20.0 | 0.00 | 0.00 | 0.00 | 81 | 1017.4 |
| 20260509013330 | 39 | 90 | 13.0 | 23.5 | 0.00 | 0.00 | 0.00 | 81 | 1017.2 |
| 20260509012820 | 39 | 113 | 12.2 | 26.9 | 0.00 | 0.00 | 0.00 | 81 | 1017.1 |
| 20260509012309 | 40 | 90 | 16.5 | 26.9 | 0.00 | 0.00 | 0.00 | 81 | 1016.9 |
| 20260509011249 | 40 | 90 | 14.8 | 23.5 | 0.00 | 0.00 | 0.00 | 85 | 1017.3 |
| 20260509010739 | 39 | 90 | 12.2 | 23.5 | 0.00 | 0.00 | 0.00 | 87 | 1017.1 |
| 20260509010229 | 40 | 90 | 14.8 | 21.7 | 0.00 | 0.00 | 0.00 | 87 | 1017.2 |
| 20260509005719 | 40 | 90 | 14.8 | 23.5 | 0.00 | 0.00 | 0.00 | 85 | 1016.7 |
| 20260509005208 | 40 | 90 | 13.9 | 23.5 | 0.00 | 0.00 | 0.00 | 84 | 1016.6 |
| 20260509003639 | 40 | 113 | 13.0 | 27.8 | 0.00 | 0.00 | 0.00 | 84 | 1016.2 |
| 20260509003129 | 40 | 90 | 17.4 | 27.8 | 0.00 | 0.00 | 0.00 | 85 | 1016.4 |
| 20260509002619 | 40 | 90 | 15.6 | 23.5 | 0.00 | 0.00 | 0.00 | 84 | 1016.2 |
| 20260509001558 | 40 | 113 | 16.5 | 26.9 | 0.00 | 0.00 | 0.00 | 80 | 1015.9 |
| 20260509001048 | 40 | 90 | 17.4 | 27.8 | 0.00 | 0.00 | 0.00 | 79 | 1015.9 |
| 20260509000538 | 41 | 68 | 18.2 | 27.8 | 0.00 | 0.00 | 0.00 | 79 | 1015.9 |
| 20260509000029 | 41 | 90 | 19.1 | 25.2 | 0.00 | 0.00 | 0.00 | 78 | 1016.0 |
| 20260508235516 | 41 | 90 | 17.4 | 25.2 | 0.00 | 0.00 | 0.00 | 78 | 1015.3 |
| 20260508235005 | 42 | 90 | 20.0 | 26.1 | 0.00 | 0.00 | 0.00 | 77 | 1015.4 |
| 20260508232925 | 42 | 68 | 22.6 | 29.5 | 0.00 | 0.00 | 0.00 | 76 | 1014.4 |
| 20260508232414 | 42 | 90 | 19.1 | 26.1 | 0.00 | 0.00 | 0.00 | 76 | 1014.1 |
| 20260508231906 | 42 | 68 | 16.5 | 29.5 | 0.00 | 0.00 | 0.00 | 75 | 1014.3 |
| 20260508231355 | 43 | 90 | 13.9 | 29.5 | 0.00 | 0.00 | 0.00 | 73 | 1014.1 |
| 20260508230845 | 44 | 68 | 16.5 | 23.5 | 0.00 | 0.00 | 0.00 | 69 | 1013.9 |
| 20260508230334 | 46 | 45 | 14.8 | 23.5 | 0.00 | 0.00 | 0.00 | 65 | 1013.6 |
| 20260508225824 | 46 | 45 | 13.0 | 23.5 | 0.00 | 0.00 | 0.00 | 63 | 1013.1 |
| 20260508225313 | 47 | 68 | 14.8 | 19.1 | 0.00 | 0.00 | 0.00 | 61 | 1013.1 |
| 20260508224804 | 47 | 45 | 10.4 | 20.0 | 0.00 | 0.00 | 0.00 | 58 | 1013.1 |
| 20260508222213 | 50 | 45 | 7.0 | 12.2 | 0.00 | 0.00 | 0.00 | 51 | 1011.9 |
| 20260508221703 | 50 | 45 | 6.1 | 12.2 | 0.00 | 0.00 | 0.00 | 51 | 1011.9 |
| 20260508220643 | 50 | 45 | 5.2 | 9.6 | 0.00 | 0.00 | 0.00 | 51 | 1011.2 |
| 20260508220132 | 50 | 45 | 5.2 | 9.6 | 0.00 | 0.00 | 0.00 | 51 | 1011.5 |
| 20260508215622 | 50 | 45 | 5.2 | 9.6 | 0.00 | 0.00 | 0.00 | 51 | 1011.4 |
| 20260508215112 | 51 | 45 | 7.0 | 9.6 | 0.00 | 0.00 | 0.00 | 50 | 1011.4 |
| 20260508213541 | 51 | 45 | 7.0 | 9.6 | 0.00 | 0.00 | 0.00 | 49 | 1010.8 |
| 20260508212522 | 52 | 45 | 7.0 | 12.2 | 0.00 | 0.00 | 0.00 | 47 | 1010.5 |
| 20260508212012 | 52 | 45 | 7.8 | 12.2 | 0.00 | 0.00 | 0.00 | 47 | 1010.3 |
| 20260508210441 | 54 | 45 | 8.7 | 13.0 | 0.00 | 0.00 | 0.00 | 45 | 1010.2 |
| 20260508205931 | 55 | 45 | 9.6 | 12.2 | 0.00 | 0.00 | 0.00 | 43 | 1010.0 |
| 20260508204911 | 55 | 68 | 7.8 | 9.6 | 0.00 | 0.00 | 0.00 | 42 | 1009.6 |
| 20260508204401 | 56 | 90 | 6.1 | 7.8 | 0.00 | 0.00 | 0.00 | 41 | 1009.7 |
| 20260508203851 | 57 | 90 | 4.3 | 7.8 | 0.00 | 0.00 | 0.00 | 39 | 1009.7 |
| 20260508202831 | 58 | 90 | 5.2 | 9.6 | 0.00 | 0.00 | 0.00 | 34 | 1009.8 |
| 20260508202320 | 59 | 90 | 5.2 | 9.6 | 0.00 | 0.00 | 0.00 | 34 | 1009.6 |
| 20260508201811 | 58 | 90 | 3.5 | 7.8 | 0.00 | 0.00 | 0.00 | 34 | 1009.7 |
| 20260508201301 | 58 | 90 | 7.0 | 7.8 | 0.00 | 0.00 | 0.00 | 34 | 1009.7 |
| 20260508195730 | 59 | 90 | 7.0 | 9.6 | 0.00 | 0.00 | 0.00 | 33 | 1010.1 |
| 20260508195219 | 59 | 90 | 0.9 | 9.6 | 0.00 | 0.00 | 0.00 | 33 | 1009.7 |
| 20260508194200 | 60 | 90 | 2.6 | 9.6 | 0.00 | 0.00 | 0.00 | 32 | 1009.8 |
| 20260508193651 | 59 | 90 | 3.5 | 11.3 | 0.00 | 0.00 | 0.00 | 32 | 1009.8 |
| 20260508193139 | 59 | 90 | 6.1 | 11.3 | 0.00 | 0.00 | 0.00 | 33 | 1009.6 |
| 20260508192631 | 59 | 90 | 7.8 | 11.3 | 0.00 | 0.00 | 0.00 | 33 | 1010.0 |
| 20260508192119 | 59 | 113 | 7.0 | 9.6 | 0.00 | 0.00 | 0.00 | 32 | 1009.8 |
| 20260508191059 | 59 | 113 | 5.2 | 9.6 | 0.00 | 0.00 | 0.00 | 33 | 1009.6 |
| 20260508190549 | 60 | 113 | 3.5 | 12.2 | 0.00 | 0.00 | 0.00 | 33 | 1009.7 |
| 20260508190039 | 59 | 113 | 7.0 | 12.2 | 0.00 | 0.00 | 0.00 | 32 | 1009.8 |
| 20260508185528 | 60 | 90 | 8.7 | 12.2 | 0.00 | 0.00 | 0.00 | 32 | 1010.0 |
| 20260508185018 | 60 | 90 | 3.5 | 12.2 | 0.00 | 0.00 | 0.00 | 33 | 1010.1 |
| 20260508184508 | 59 | 90 | 4.3 | 11.3 | 0.00 | 0.00 | 0.00 | 34 | 1010.0 |
| 20260508183959 | 58 | 90 | 7.0 | 11.3 | 0.00 | 0.00 | 0.00 | 33 | 1010.2 |
| 20260508183448 | 59 | 90 | 7.0 | 13.9 | 0.00 | 0.00 | 0.00 | 33 | 1010.0 |
| 20260508182938 | 58 | 90 | 5.2 | 13.9 | 0.00 | 0.00 | 0.00 | 33 | 1010.1 |
| 20260508181918 | 59 | 90 | 3.5 | 14.8 | 0.00 | 0.00 | 0.00 | 33 | 1010.0 |
| 20260508181408 | 59 | 90 | 7.0 | 14.8 | 0.00 | 0.00 | 0.00 | 34 | 1010.0 |
| 20260508180857 | 59 | 113 | 9.6 | 13.0 | 0.00 | 0.00 | 0.00 | 33 | 1010.3 |
| 20260508180347 | 58 | 113 | 8.7 | 13.0 | 0.00 | 0.00 | 0.00 | 33 | 1010.2 |
| 20260508175837 | 59 | 90 | 3.5 | 13.0 | 0.00 | 0.00 | 0.00 | 32 | 1010.4 |
| 20260508175328 | 58 | 90 | 6.1 | 13.9 | 0.00 | 0.00 | 0.00 | 33 | 1010.1 |
| 20260508174817 | 58 | 90 | 9.6 | 13.9 | 0.00 | 0.00 | 0.00 | 33 | 1010.1 |
| 20260508173757 | 57 | 90 | 1.7 | 13.9 | 0.00 | 0.00 | 0.00 | 36 | 1010.6 |
| 20260508173246 | 58 | 90 | 7.8 | 13.0 | 0.00 | 0.00 | 0.00 | 38 | 1010.5 |
| 20260508172736 | 57 | 90 | 8.7 | 13.0 | 0.00 | 0.00 | 0.00 | 38 | 1010.7 |
| 20260508172226 | 56 | 90 | 9.6 | 13.9 | 0.00 | 0.00 | 0.00 | 39 | 1011.0 |
| 20260508171716 | 57 | 90 | 9.6 | 13.9 | 0.00 | 0.00 | 0.00 | 40 | 1010.8 |
| 20260508171207 | 57 | 68 | 9.6 | 20.0 | 0.00 | 0.00 | 0.00 | 43 | 1010.8 |
| 20260508165636 | 56 | 90 | 11.3 | 18.2 | 0.00 | 0.00 | 0.00 | 39 | 1011.0 |
| 20260508165126 | 57 | 90 | 10.4 | 17.4 | 0.00 | 0.00 | 0.00 | 42 | 1011.2 |
| 20260508164615 | 56 | 90 | 11.3 | 18.2 | 0.00 | 0.00 | 0.00 | 43 | 1011.5 |
| 20260508164105 | 55 | 90 | 13.0 | 20.9 | 0.00 | 0.00 | 0.00 | 43 | 1011.5 |
| 20260508163556 | 56 | 113 | 13.9 | 20.9 | 0.00 | 0.00 | 0.00 | 44 | 1011.8 |
| 20260508163045 | 56 | 90 | 15.6 | 20.9 | 0.00 | 0.00 | 0.00 | 40 | 1011.7 |
| 20260508162535 | 55 | 90 | 14.8 | 19.1 | 0.00 | 0.00 | 0.00 | 41 | 1011.9 |
| 20260508161515 | 56 | 90 | 13.0 | 23.5 | 0.00 | 0.00 | 0.00 | 41 | 1011.8 |
| 20260508161005 | 55 | 90 | 20.0 | 23.5 | 0.00 | 0.00 | 0.00 | 42 | 1012.1 |
| 20260508155945 | 54 | 90 | 17.4 | 21.7 | 0.00 | 0.00 | 0.00 | 42 | 1011.8 |
| 20260508155436 | 54 | 68 | 14.8 | 21.7 | 0.00 | 0.00 | 0.00 | 42 | 1011.7 |
| 20260508154924 | 53 | 90 | 17.4 | 23.5 | 0.00 | 0.00 | 0.00 | 43 | 1012.0 |
| 20260508153904 | 55 | 90 | 13.0 | 21.7 | 0.00 | 0.00 | 0.00 | 43 | 1011.8 |
| 20260508153354 | 55 | 90 | 13.9 | 21.7 | 0.00 | 0.00 | 0.00 | 41 | 1011.8 |
| 20260508152334 | 53 | 90 | 18.2 | 23.5 | 0.00 | 0.00 | 0.00 | 44 | 1012.4 |
| 20260508151825 | 53 | 90 | 16.5 | 25.2 | 0.00 | 0.00 | 0.00 | 42 | 1012.3 |
| 20260508151314 | 53 | 90 | 15.6 | 26.1 | 0.00 | 0.00 | 0.00 | 41 | 1012.3 |
| 20260508150804 | 53 | 90 | 18.2 | 26.1 | 0.00 | 0.00 | 0.00 | 41 | 1012.5 |
| 20260508150254 | 53 | 90 | 19.1 | 26.1 | 0.00 | 0.00 | 0.00 | 41 | 1012.6 |
| 20260508145744 | 52 | 90 | 18.2 | 26.1 | 0.00 | 0.00 | 0.00 | 41 | 1012.5 |
| 20260508145233 | 52 | 90 | 19.1 | 26.9 | 0.00 | 0.00 | 0.00 | 41 | 1012.5 |
| 20260508144723 | 52 | 90 | 19.1 | 26.9 | 0.00 | 0.00 | 0.00 | 41 | 1012.9 |
| 20260508144212 | 52 | 90 | 17.4 | 26.1 | 0.00 | 0.00 | 0.00 | 40 | 1013.0 |
| 20260508143703 | 52 | 90 | 16.5 | 21.7 | 0.00 | 0.00 | 0.00 | 40 | 1012.6 |
| 20260508143154 | 51 | 90 | 15.6 | 25.2 | 0.00 | 0.00 | 0.00 | 40 | 1013.0 |
| 20260508142643 | 51 | 90 | 16.5 | 26.1 | 0.00 | 0.00 | 0.00 | 39 | 1012.9 |
| 20260508142134 | 50 | 90 | 19.1 | 26.1 | 0.00 | 0.00 | 0.00 | 39 | 1013.0 |
| 20260508141112 | 51 | 90 | 19.1 | 23.5 | 0.00 | 0.00 | 0.00 | 39 | 1013.0 |
| 20260508140602 | 51 | 90 | 15.6 | 23.5 | 0.00 | 0.00 | 0.00 | 38 | 1012.9 |
| 20260508135542 | 50 | 90 | 15.6 | 25.2 | 0.00 | 0.00 | 0.00 | 37 | 1013.0 |
| 20260508134522 | 49 | 90 | 15.6 | 23.5 | 0.00 | 0.00 | 0.00 | 36 | 1013.2 |
| 20260508133502 | 50 | 90 | 15.6 | 23.5 | 0.00 | 0.00 | 0.00 | 35 | 1013.3 |
| 20260508132951 | 49 | 90 | 14.8 | 23.5 | 0.00 | 0.00 | 0.00 | 34 | 1013.5 |
| 20260508132442 | 49 | 90 | 13.9 | 23.5 | 0.00 | 0.00 | 0.00 | 32 | 1013.2 |
| 20260508131931 | 49 | 90 | 13.9 | 25.2 | 0.00 | 0.00 | 0.00 | 32 | 1013.2 |
| 20260508131421 | 48 | 90 | 16.5 | 25.2 | 0.00 | 0.00 | 0.00 | 32 | 1013.1 |
| 20260508130910 | 49 | 68 | 13.9 | 25.2 | 0.00 | 0.00 | 0.00 | 33 | 1013.5 |
| 20260508130400 | 47 | 90 | 13.0 | 23.5 | 0.00 | 0.00 | 0.00 | 34 | 1013.1 |
| 20260508125850 | 47 | 90 | 12.2 | 23.5 | 0.00 | 0.00 | 0.00 | 35 | 1013.4 |
| 20260508125341 | 46 | 113 | 13.0 | 20.0 | 0.00 | 0.00 | 0.00 | 35 | 1013.4 |
| 20260508124830 | 46 | 90 | 9.6 | 20.9 | 0.00 | 0.00 | 0.00 | 37 | 1013.4 |
| 20260508123810 | 45 | 113 | 14.8 | 20.0 | 0.00 | 0.00 | 0.00 | 39 | 1013.7 |
| 20260508123300 | 44 | 90 | 13.9 | 19.1 | 0.00 | 0.00 | 0.00 | 41 | 1013.7 |
| 20260508122749 | 44 | 90 | 12.2 | 20.0 | 0.00 | 0.00 | 0.00 | 40 | 1013.6 |
| 20260508122240 | 45 | 113 | 13.9 | 20.0 | 0.00 | 0.00 | 0.00 | 41 | 1013.7 |
| 20260508121731 | 44 | 113 | 11.3 | 20.0 | 0.00 | 0.00 | 0.00 | 42 | 1013.5 |
| 20260508120710 | 43 | 90 | 13.9 | 19.1 | 0.00 | 0.00 | 0.00 | 46 | 1013.5 |
| 20260508120200 | 43 | 113 | 13.0 | 19.1 | 0.00 | 0.00 | 0.00 | 48 | 1013.6 |
| 20260508115649 | 42 | 90 | 12.2 | 14.8 | 0.00 | 0.00 | 0.00 | 49 | 1013.6 |
| 20260508115139 | 42 | 113 | 9.6 | 14.8 | 0.00 | 0.00 | 0.00 | 51 | 1013.2 |
| 20260508114629 | 41 | 113 | 9.6 | 14.8 | 0.00 | 0.00 | 0.00 | 52 | 1013.6 |
| 20260508114119 | 41 | 90 | 9.6 | 13.0 | 0.00 | 0.00 | 0.00 | 53 | 1013.4 |
| 20260508113609 | 40 | 90 | 8.7 | 12.2 | 0.00 | 0.00 | 0.00 | 54 | 1013.6 |
| 20260508113059 | 40 | 90 | 7.8 | 12.2 | 0.00 | 0.00 | 0.00 | 55 | 1013.3 |
| 20260508112039 | 39 | 90 | 7.0 | 12.2 | 0.00 | 0.00 | 0.00 | 56 | 1013.5 |
| 20260508111528 | 39 | 90 | 7.0 | 12.2 | 0.00 | 0.00 | 0.00 | 56 | 1013.4 |
| 20260508111018 | 39 | 90 | 7.0 | 12.2 | 0.00 | 0.00 | 0.00 | 56 | 1013.3 |
| 20260508110508 | 39 | 90 | 7.8 | 11.3 | 0.00 | 0.00 | 0.00 | 56 | 1013.2 |
| 20260508105958 | 39 | 90 | 7.8 | 13.0 | 0.00 | 0.00 | 0.00 | 55 | 1013.2 |
| 20260508105448 | 39 | 90 | 7.8 | 13.0 | 0.00 | 0.00 | 0.00 | 55 | 1013.3 |
| 20260508104427 | 40 | 90 | 8.7 | 13.9 | 0.00 | 0.00 | 0.00 | 54 | 1012.9 |
| 20260508103918 | 40 | 90 | 9.6 | 13.0 | 0.00 | 0.00 | 0.00 | 54 | 1013.3 |
| 20260508103408 | 40 | 113 | 9.6 | 13.9 | 0.00 | 0.00 | 0.00 | 54 | 1013.0 |
| 20260508102858 | 40 | 113 | 10.4 | 13.9 | 0.00 | 0.00 | 0.00 | 53 | 1013.2 |
| 20260508102347 | 40 | 90 | 8.7 | 13.9 | 0.00 | 0.00 | 0.00 | 53 | 1013.1 |
| 20260508101837 | 40 | 90 | 9.6 | 14.8 | 0.00 | 0.00 | 0.00 | 53 | 1013.3 |
| 20260508101326 | 41 | 113 | 9.6 | 17.4 | 0.00 | 0.00 | 0.00 | 52 | 1013.0 |
| 20260508100818 | 41 | 113 | 13.0 | 18.2 | 0.00 | 0.00 | 0.00 | 51 | 1013.3 |
| 20260508095756 | 41 | 113 | 9.6 | 20.0 | 0.00 | 0.00 | 0.00 | 51 | 1013.4 |
| 20260508095247 | 41 | 90 | 11.3 | 20.0 | 0.00 | 0.00 | 0.00 | 51 | 1013.2 |
| 20260508094737 | 41 | 113 | 12.2 | 15.6 | 0.00 | 0.00 | 0.00 | 51 | 1013.3 |
| 20260508093716 | 40 | 113 | 10.4 | 18.2 | 0.00 | 0.00 | 0.00 | 52 | 1013.3 |
| 20260508093206 | 40 | 113 | 11.3 | 17.4 | 0.00 | 0.00 | 0.00 | 52 | 1013.2 |
| 20260508092657 | 40 | 113 | 10.4 | 15.6 | 0.00 | 0.00 | 0.00 | 51 | 1013.1 |
| 20260508092146 | 40 | 113 | 10.4 | 15.6 | 0.00 | 0.00 | 0.00 | 51 | 1013.0 |
| 20260508091636 | 40 | 113 | 9.6 | 14.8 | 0.00 | 0.00 | 0.00 | 52 | 1012.7 |
| 20260508090616 | 41 | 113 | 11.3 | 15.6 | 0.00 | 0.00 | 0.00 | 50 | 1012.5 |
| 20260508090105 | 40 | 113 | 12.2 | 14.8 | 0.00 | 0.00 | 0.00 | 51 | 1012.7 |
| 20260508085555 | 40 | 113 | 8.7 | 14.8 | 0.00 | 0.00 | 0.00 | 51 | 1012.6 |
| 20260508085046 | 41 | 113 | 11.3 | 18.2 | 0.00 | 0.00 | 0.00 | 50 | 1012.3 |
| 20260508084535 | 40 | 113 | 11.3 | 18.2 | 0.00 | 0.00 | 0.00 | 51 | 1012.5 |
| 20260508084025 | 41 | 113 | 9.6 | 20.9 | 0.00 | 0.00 | 0.00 | 50 | 1012.5 |
| 20260508083514 | 41 | 113 | 12.2 | 20.9 | 0.00 | 0.00 | 0.00 | 49 | 1012.7 |
| 20260508083007 | 41 | 113 | 13.0 | 19.1 | 0.00 | 0.00 | 0.00 | 49 | 1012.6 |
| 20260508082455 | 41 | 113 | 12.2 | 21.7 | 0.00 | 0.00 | 0.00 | 49 | 1012.4 |
| 20260508081945 | 41 | 113 | 13.0 | 21.7 | 0.00 | 0.00 | 0.00 | 49 | 1012.4 |
| 20260508081434 | 41 | 113 | 12.2 | 20.9 | 0.00 | 0.00 | 0.00 | 49 | 1012.4 |
| 20260508080924 | 42 | 90 | 12.2 | 20.9 | 0.00 | 0.00 | 0.00 | 48 | 1012.4 |
| 20260508075354 | 41 | 113 | 11.3 | 20.0 | 0.00 | 0.00 | 0.00 | 49 | 1012.3 |
| 20260508074843 | 42 | 113 | 13.9 | 18.2 | 0.00 | 0.00 | 0.00 | 47 | 1012.2 |
| 20260508074334 | 41 | 90 | 13.0 | 19.1 | 0.00 | 0.00 | 0.00 | 48 | 1012.3 |
| 20260508073824 | 42 | 113 | 13.0 | 20.9 | 0.00 | 0.00 | 0.00 | 48 | 1012.2 |
| 20260508073315 | 42 | 113 | 13.9 | 20.9 | 0.00 | 0.00 | 0.00 | 47 | 1012.2 |
| 20260508072803 | 42 | 90 | 13.0 | 20.9 | 0.00 | 0.00 | 0.00 | 48 | 1012.0 |
| 20260508072254 | 41 | 90 | 11.3 | 20.0 | 0.00 | 0.00 | 0.00 | 48 | 1012.2 |
| 20260508070726 | 42 | 90 | 11.3 | 18.2 | 0.00 | 0.00 | 0.00 | 47 | 1012.2 |
| 20260508065706 | 42 | 113 | 11.3 | 20.9 | 0.00 | 0.00 | 0.00 | 47 | 1012.3 |
| 20260508065156 | 41 | 113 | 10.4 | 15.6 | 0.00 | 0.00 | 0.00 | 48 | 1012.5 |
| 20260508064646 | 41 | 113 | 12.2 | 18.2 | 0.00 | 0.00 | 0.00 | 48 | 1012.4 |
| 20260508064135 | 41 | 113 | 12.2 | 18.2 | 0.00 | 0.00 | 0.00 | 48 | 1012.6 |
| 20260508063625 | 41 | 113 | 13.0 | 17.4 | 0.00 | 0.00 | 0.00 | 47 | 1012.5 |
| 20260508063116 | 41 | 90 | 11.3 | 20.0 | 0.00 | 0.00 | 0.00 | 47 | 1012.6 |
| 20260508062605 | 42 | 90 | 12.2 | 20.0 | 0.00 | 0.00 | 0.00 | 46 | 1012.7 |
| 20260508062055 | 41 | 113 | 12.2 | 17.4 | 0.00 | 0.00 | 0.00 | 47 | 1013.0 |
| 20260508061545 | 42 | 113 | 12.2 | 17.4 | 0.00 | 0.00 | 0.00 | 46 | 1013.0 |
| 20260508061035 | 42 | 113 | 9.6 | 17.4 | 0.00 | 0.00 | 0.00 | 46 | 1013.1 |
| 20260508060525 | 42 | 113 | 13.0 | 17.4 | 0.00 | 0.00 | 0.00 | 45 | 1012.7 |
| 20260508060015 | 42 | 113 | 9.6 | 15.6 | 0.00 | 0.00 | 0.00 | 46 | 1013.0 |
| 20260508055506 | 42 | 113 | 10.4 | 15.6 | 0.00 | 0.00 | 0.00 | 45 | 1013.0 |
| 20260508054954 | 42 | 113 | 12.2 | 14.8 | 0.00 | 0.00 | 0.00 | 44 | 1013.1 |
| 20260508054445 | 42 | 113 | 8.7 | 17.4 | 0.00 | 0.00 | 0.00 | 45 | 1013.1 |
| 20260508053934 | 42 | 113 | 9.6 | 17.4 | 0.00 | 0.00 | 0.00 | 44 | 1013.1 |
| 20260508053424 | 42 | 113 | 11.3 | 19.1 | 0.00 | 0.00 | 0.00 | 44 | 1013.6 |
| 20260508052913 | 42 | 113 | 9.6 | 19.1 | 0.00 | 0.00 | 0.00 | 44 | 1013.5 |
| 20260508052404 | 42 | 90 | 10.4 | 13.9 | 0.00 | 0.00 | 0.00 | 44 | 1013.2 |
| 20260508051854 | 42 | 90 | 7.0 | 14.8 | 0.00 | 0.00 | 0.00 | 44 | 1013.7 |
| 20260508051344 | 43 | 90 | 9.6 | 14.8 | 0.00 | 0.00 | 0.00 | 43 | 1013.8 |
| 20260508050834 | 43 | 90 | 9.6 | 13.9 | 0.00 | 0.00 | 0.00 | 44 | 1013.7 |
| 20260508050323 | 43 | 90 | 9.6 | 14.8 | 0.00 | 0.00 | 0.00 | 43 | 1013.8 |
| 20260508045814 | 43 | 90 | 7.8 | 14.8 | 0.00 | 0.00 | 0.00 | 43 | 1013.8 |
| 20260508044754 | 44 | 90 | 9.6 | 19.1 | 0.00 | 0.00 | 0.00 | 42 | 1014.0 |
| 20260508044243 | 44 | 90 | 10.4 | 19.1 | 0.00 | 0.00 | 0.00 | 42 | 1014.1 |